This demonstration page uses our WeatherBlox Daily Observations layout. Learn more.

Left ArrowRight Arrow

36.17497, -115.13722

Hourly Observations for July 1, 2020

Temp ( °F °C ) Dew Point ( °F °C ) Humidity (%) Winds ( mph kmh ) Pressure ( in mb ) Visibility ( mi km ) Precip ( " mm )
12:53 am 00:53 Clear 79 26.1 27 -2.8 15 15 SW 3 6 29.76 1008 10 16 0.00 0.00
1:53 am 01:53 Clear 79 26.1 29 -1.7 16 16 W 6 9 29.76 1008 10 16 0.00 0.00
2:53 am 02:53 Clear 76 24.4 29 -1.7 18 18 WNW 6 9 29.76 1008 10 16 0.00 0.00
3:53 am 03:53 Clear 74 23.3 30 -1.1 20 20 S 3 6 29.77 1008 10 16 0.00 0.00
4:53 am 04:53 Clear 73 22.8 30 -1.1 20 20 WNW 7 11 29.77 1008 10 16 0.00 0.00
5:53 am 05:53 Sunny 72 22.2 30 -1.1 21 21 NW 7 11 29.78 1009 10 16 0.00 0.00
6:53 am 06:53 Sunny 75 23.9 26 -3.3 16 16 NW 5 7 29.79 1009 10 16 0.00 0.00
7:53 am 07:53 Sunny 79 26.1 25 -3.9 14 14 Calm 29.81 1010 10 16 0.00 0.00
8:53 am 08:53 Sunny 84 28.9 26 -3.3 12 12 E 5 7 29.81 1010 10 16 0.00 0.00
9:53 am 09:53 Sunny 88 31.1 31 -0.6 13 13 ESE 5 7 29.80 1009 10 16 0.00 0.00
10:53 am 10:53 Sunny 93 33.9 29 -1.7 10 10 ESE 14 22 29.80 1009 10 16 0.00 0.00
11:53 am 11:53 Sunny 94 34.4 30 -1.1 10 10 SE 9 15 29.78 1009 10 16 0.00 0.00
12:26 pm 12:26 Sunny 96 35.6 30 -1.1 10 10 SSE 21 33 29.62 1003 10 16 0.00 0.00
12:53 pm 12:53 Sunny 97 36.1 31 -0.6 10 10 S 16 26 29.76 1008 10 16 0.00 0.00
1:53 pm 13:53 Sunny 98 36.7 33 0.6 10 10 ESE 16 26 29.74 1007 10 16 0.00 0.00
2:53 pm 14:53 Sunny 98 36.7 33 0.6 10 10 SE 17 28 29.72 1006 10 16 0.00 0.00
3:53 pm 15:53 Sunny 100 37.8 31 -0.6 9 9 SSE 17 28 29.69 1006 10 16 0.00 0.00
4:53 pm 16:53 Sunny 99 37.2 30 -1.1 9 9 SSW 10 17 29.68 1005 10 16 0.00 0.00
5:26 pm 17:26 Sunny 99 37.2 29 -1.7 8 8 SSW 12 19 29.50 999 10 16 0.00 0.00
5:53 pm 17:53 Sunny 99 37.2 30 -1.1 9 9 SW 10 17 29.67 1005 10 16 0.00 0.00
6:53 pm 18:53 Sunny 97 36.1 29 -1.7 9 9 SSW 17 28 29.67 1005 10 16 0.00 0.00
7:53 pm 19:53 Sunny 96 35.6 30 -1.1 10 10 SSW 12 19 29.68 1005 10 16 0.00 0.00
8:53 pm 20:53 Clear 93 33.9 30 -1.1 10 10 SW 8 13 29.70 1006 10 16 0.00 0.00
9:53 pm 21:53 Clear 91 32.8 31 -0.6 12 12 S 7 11 29.72 1007 10 16 0.00 0.00
10:53 pm 22:53 Clear 90 32.2 34 1.1 14 14 S 10 17 29.73 1007 10 16 0.00 0.00
11:53 pm 23:53 Clear 88 31.1 35 1.7 15 15 S 9 15 29.74 1007 10 16 0.00 0.00

Powered by AerisWeather